Regional Weather Roundup
Issued by NWS

Home | Current Version | Previous Version | Text Only | Print | Product List | Glossary Off
Versions: 1 2 3 4 5 6 7 8 9 10 11 12 13 14 15 16 17 18 19 20 21 22 23 24 25 26 27 28 29 30 31 32 33 34 35 36 37 38 39 40 41 42 43 44 45 46 47 48 49 50

000
ASUS44 KMEG 281700
RWRTN
TENNESSEE HOURLY STATE WEATHER ROUNDUP
NATIONAL WEATHER SERVICE MEMPHIS TN
1200 PM CDT TUE JUL 28 2015

TNZ002-004-019-021-049-052-054-088>092-281800-
WEST TENNESSEE

CITY           SKY/WX    TMP DP  RH WIND       PRES   REMARKS
MEMPHIS INTL   MOSUNNY   94  75  54 SW6       30.01S HX 105
NWS MEMPHIS      N/A     94 N/A N/A MISG        N/A
JACKSON        MOSUNNY   94  76  55 VRB6      30.01S HX 106
DYERSBURG        N/A    N/A N/A N/A MISG        N/A
PARIS          MOSUNNY   90  75  62 W6        30.02S HX 100
LEXINGTON      MOSUNNY   93  75  55 W8        30.01S HX 104
$$

TNZ008-025-027-028-033-062-065-066-281800-
NORTH MIDDLE TENNESSEE

CITY           SKY/WX    TMP DP  RH WIND       PRES   REMARKS
NASHVILLE      PTSUNNY   90  76  63 W8        30.01F HX 101
CLARKSVILLE    MOSUNNY   91  77  63 W8        30.00S HX 104
COOKEVILLE     SUNNY     93  79  62 W7        30.03S HX 110
CROSSVILLE     MOSUNNY   86  71  60 VRB6      30.09F HX  91
$$

TNZ061-075-076-078-094-096-097-281800-
SOUTH MIDDLE TENNESSEE

CITY           SKY/WX    TMP DP  RH WIND       PRES   REMARKS
FAYETTEVILLE     N/A     90  75  62 S8        30.04S HX 100
TULLAHOMA      SUNNY     91  73  55 VRB7      30.05F HX 100
WINCHESTER     SUNNY     90  73  58 NW3       30.04F HX  98
MCMINNVILLE    PTSUNNY   88  79  74 W9        30.05S HX 102
SHELBYVILLE    MOSUNNY   93  75  55 W8        30.03S HX 104
$$

TNZ017-018-042-046-047-281800-
NORTHEAST TENNESSEE

CITY           SKY/WX    TMP DP  RH WIND       PRES   REMARKS
TRI CITIES     MOSUNNY   87  71  58 CALM      30.06F HX  93
$$

TNZ012-013-036-069-073-074-281800-
CENTRAL EAST TENNESSEE

CITY           SKY/WX    TMP DP  RH WIND       PRES   REMARKS
KNOXVILLE      PTSUNNY   87  73  62 W3        30.02F HX  94
OAK RIDGE      PTSUNNY   91  74  57 MISG      30.03F HX 100
GATLINBURG       N/A     90  72  55 W7        30.02F HX  96
$$

TNZ083-085-099-281800-
SOUTHEAST TENNESSEE

CITY           SKY/WX    TMP DP  RH WIND       PRES   REMARKS
CHATTANOOGA    PTSUNNY   91  72  53 NW3       30.02S HX  98
$$

SKY/WX REPORTED AS FAIR MEANS FEW OR NO CLOUDS BELOW
12 THOUSAND FEET.




USA.gov is the U.S. government's official web portal to all federal, state and local government web resources and services.